Theta_e
308 309 309 310 310 308 307 308 308 308 308 309 309 309 309 309 309 315 317 312 312 309 308 315 318 319 315 310 309 308 311 313 314 316 317 316 317 318 318 318 319 321 322 350 351
303 306 309 310 310 307 308 308 308 308 308 308 308 308 308 309 314 317 313 308 309 309 312 316 316 314 310 311 309 306 306 312 313 314 314 315 315 315 317 317 318 319 323 348 350
302 301 303 307 306 307 308 308 309 309 309 309 308 308 309 311 317 314 309 309 309 309 315 316 315 313 311 310 310 309 308 309 311 312 313 314 314 315 315 315 316 318 320 327 341
302 302 301 304 306 308 308 308 309 310 310 309 309 309 309 316 321 314 309 309 311 314 316 316 313 312 312 312 312 312 310 310 310 310 310 310 311 312 313 314 315 317 321 320 319
302 302 302 301 306 308 309 308 309 310 310 309 309 310 313 319 321 311 311 314 315 317 316 313 313 312 312 312 313 313 313 313 311 310 311 311 311 310 311 313 314 315 320 319 319
301 301 301 301 304 308 309 309 309 310 310 310 310 310 316 323 315 314 314 315 315 314 315 314 313 313 313 312 312 312 313 313 312 312 311 312 311 311 312 313 313 314 317 318 318
302 302 302 302 302 307 308 309 309 309 311 310 310 313 317 318 315 315 314 314 314 315 315 315 316 313 312 313 313 314 313 313 313 313 312 312 312 312 313 313 312 313 314 317 317
302 302 303 304 303 308 308 308 309 309 312 311 311 315 319 316 316 314 314 315 314 315 315 316 316 314 313 312 313 314 313 313 313 313 313 312 313 313 312 312 312 312 313 314 315
303 302 305 307 306 308 308 308 308 309 313 314 316 317 320 316 315 316 316 314 314 314 315 316 316 315 314 314 314 313 315 315 315 315 314 313 313 313 312 311 312 312 312 313 313
305 302 308 308 308 309 308 309 314 313 317 317 318 319 318 318 316 316 314 314 314 314 315 315 314 315 314 314 318 317 316 316 318 318 317 315 314 313 311 312 312 312 313 313 313
307 303 309 309 309 309 309 313 313 317 317 318 314 319 316 315 315 315 315 315 315 316 314 313 316 318 317 317 318 318 318 317 317 317 317 315 315 315 313 313 312 310 311 313 313
308 303 309 309 309 310 310 314 313 312 313 314 315 316 315 315 315 315 315 316 316 315 315 316 317 317 318 319 319 318 319 319 318 318 318 317 316 316 315 313 313 313 312 312 313
312 304 308 308 310 312 312 315 313 314 313 318 318 314 314 314 315 315 316 316 315 315 315 315 315 316 316 317 317 316 318 319 319 319 318 319 319 317 316 316 315 314 313 314 313
316 307 307 310 313 314 312 311 315 315 319 323 316 315 315 314 316 317 316 316 316 316 315 315 315 316 316 317 317 318 317 318 319 321 322 321 323 317 318 318 317 316 314 315 313
317 310 306 307 310 314 313 312 317 317 325 315 314 315 312 313 316 318 316 317 317 317 317 318 316 316 318 318 317 317 316 317 317 320 320 321 325 320 318 318 317 317 316 314 314
316 312 306 312 313 313 310 312 317 326 329 314 313 312 312 314 316 315 316 315 315 316 317 317 317 318 319 320 319 319 321 320 319 320 325 322 323 320 319 319 318 317 317 317 316
316 313 307 308 314 313 311 314 323 325 314 313 311 312 313 314 315 315 315 315 320 323 323 321 320 318 320 320 319 321 324 327 327 326 325 319 322 320 318 317 317 317 316 316 315
315 313 314 313 313 313 313 318 326 317 313 311 311 314 314 313 315 314 314 315 319 318 319 323 321 318 316 316 316 316 322 326 327 327 327 321 324 320 318 318 318 317 318 317 315
314 316 316 315 312 315 317 324 316 314 312 313 313 313 313 314 314 314 315 316 316 319 321 320 321 316 315 315 314 316 319 321 323 322 323 320 316 315 316 317 319 318 319 318 316
312 316 319 315 314 315 319 324 315 315 314 314 314 313 313 314 315 316 317 316 317 319 317 318 319 316 315 314 314 315 317 321 323 319 320 318 317 316 320 319 320 319 317 317 316
313 321 315 317 316 316 318 317 316 316 314 314 314 313 314 315 314 316 318 317 317 317 316 316 316 317 314 315 315 317 319 321 323 326 325 320 317 316 318 320 319 317 318 315 316
311 322 319 317 317 317 317 318 315 316 315 314 313 314 313 313 316 316 316 315 317 316 318 316 314 318 315 313 313 314 318 320 325 322 320 318 318 315 314 317 315 314 316 315 314
313 319 320 319 322 321 319 319 319 317 314 314 313 312 312 313 315 314 314 317 316 317 315 312 315 317 316 315 319 322 321 321 322 321 323 323 318 316 316 316 315 314 313 314 315
315 322 319 318 318 320 320 321 322 317 315 314 312 312 312 312 313 315 317 315 316 319 318 313 314 318 317 316 315 316 316 317 320 324 324 323 321 318 318 317 317 315 315 313 317
318 319 319 319 319 320 320 322 322 317 315 313 313 312 312 314 316 317 316 316 315 319 317 314 317 315 316 316 316 317 318 319 320 322 325 322 322 321 320 319 319 318 318 318 323
319 318 317 318 319 320 320 321 321 321 316 313 314 313 312 316 317 317 316 316 317 316 313 313 316 316 315 315 317 320 313 313 314 315 316 316 317 313 314 312 314 318 319 320 322
315 314 314 317 318 319 320 319 321 317 315 315 314 313 316 317 315 314 314 316 320 315 315 316 316 317 317 317 318 322 311 309 310 310 310 312 311 310 309 308 310 313 317 320 323
Wind_Speed
26 24 23 22 21 19 18 17 17 18 18 19 20 20 20 22 23 7 4 1 2 4 11 19 18 18 20 6 9 6 6 10 9 12 13 15 14 18 17 13 20 16 7 13 24
27 26 24 23 21 18 16 16 18 19 19 19 20 20 21 20 16 9 3 2 4 6 7 15 12 14 4 5 4 5 5 7 9 14 14 13 15 14 18 19 18 23 5 21 22
28 27 26 23 19 16 15 16 19 19 19 19 19 18 18 15 5 2 2 4 7 8 7 15 18 7 7 7 9 8 10 12 16 17 14 14 17 9 15 16 14 19 22 3 6
29 27 26 22 18 14 15 16 18 19 20 18 17 17 15 4 5 3 4 6 9 9 11 14 7 6 5 7 8 5 12 13 11 10 9 9 11 15 13 21 15 20 19 16 9
28 26 25 22 17 15 14 16 18 20 19 16 17 16 6 3 4 5 3 3 9 8 15 9 8 7 7 8 11 8 9 10 9 8 8 10 10 9 18 18 14 19 17 13 15
30 28 24 21 17 14 15 16 18 18 17 14 16 12 2 4 5 5 3 3 10 12 14 12 7 9 6 8 7 8 12 12 10 10 8 8 8 9 23 16 17 17 16 14 14
34 31 26 20 15 14 15 16 17 18 16 13 14 5 4 10 2 2 5 11 11 10 5 11 18 8 10 8 8 16 13 15 11 8 9 8 11 15 21 18 16 17 17 16 16
37 32 26 20 12 12 15 17 17 17 15 11 10 1 6 10 9 6 14 18 15 13 9 8 10 7 5 8 10 13 9 8 9 14 19 9 18 21 13 14 17 14 16 16 17
39 32 24 18 11 13 17 19 18 16 13 7 4 2 6 5 8 14 11 11 16 16 10 11 5 4 7 7 7 7 12 16 20 19 18 11 22 19 14 11 17 14 12 14 18
42 29 20 14 12 16 19 17 15 11 5 4 10 5 8 7 10 12 11 20 17 7 6 5 5 5 7 5 8 11 11 14 15 16 14 8 13 9 9 13 13 11 11 15 15
43 26 17 15 15 17 20 7 3 2 4 8 12 10 16 13 13 8 17 17 12 2 7 9 8 10 18 17 18 15 17 19 18 15 14 15 14 15 11 6 9 10 12 13 16
45 26 17 16 16 16 15 4 7 8 8 15 17 15 16 15 9 12 22 5 4 9 9 11 13 18 20 20 22 20 20 23 20 18 18 17 19 13 13 7 12 9 8 11 13
44 29 18 17 19 14 7 12 12 14 3 10 10 5 4 5 9 16 4 6 8 8 12 14 16 20 21 15 17 18 17 17 20 18 17 14 26 16 12 12 12 10 10 12 19
46 32 17 20 8 19 6 15 14 6 2 6 7 3 5 8 12 2 10 6 4 10 11 12 11 19 20 21 19 21 14 17 17 10 13 7 19 18 5 12 12 12 14 16 16
47 32 13 14 15 9 17 15 10 1 3 6 15 3 18 11 14 7 11 5 10 17 13 17 14 16 18 21 20 26 18 17 20 10 13 10 8 23 6 15 16 19 14 13 19
48 29 12 4 10 13 20 17 6 2 3 4 12 16 20 17 13 16 12 12 11 13 15 16 12 17 16 17 17 16 13 14 11 7 13 8 13 22 14 20 18 17 18 19 22
53 22 11 10 5 19 18 10 2 2 14 12 20 20 18 14 17 18 18 16 6 8 9 18 11 10 8 8 8 12 4 3 4 7 12 9 11 19 5 13 20 21 20 16 23
51 9 7 14 12 16 14 4 2 14 13 15 16 19 11 21 10 13 16 16 2 5 5 7 9 9 11 12 11 15 7 3 6 4 3 4 8 5 10 18 16 15 14 18 16
42 11 7 7 5 8 4 3 3 10 13 15 13 12 12 19 14 13 12 7 7 6 3 6 6 22 26 21 10 2 5 7 4 8 4 6 10 12 21 21 13 10 7 11 12
29 9 6 9 11 2 3 5 11 13 9 10 10 11 19 20 16 16 7 6 11 4 6 4 14 14 19 13 14 13 5 3 4 4 6 5 7 4 9 10 7 6 6 6 10
9 4 2 20 14 2 1 7 14 18 7 5 10 14 14 13 17 13 8 14 8 4 2 7 7 11 8 6 6 2 2 3 4 4 3 5 5 7 6 3 10 9 9 9 6
14 4 18 17 4 3 5 11 15 13 11 6 6 6 9 15 14 9 11 13 11 5 2 2 4 6 14 26 20 18 8 12 4 4 4 6 14 8 9 8 8 10 8 9 7
7 4 17 24 4 5 6 12 19 13 6 8 6 8 10 10 13 12 17 12 3 4 3 5 4 6 7 3 4 4 2 6 11 9 16 9 8 5 11 6 8 9 11 10 7
3 4 4 5 8 9 12 13 17 12 12 11 13 10 10 16 13 16 15 13 5 6 14 11 4 8 11 17 15 22 23 20 16 7 7 12 21 15 13 15 9 8 13 10 8
2 4 5 5 8 13 12 13 19 16 10 12 5 12 16 18 11 11 23 22 23 4 4 2 6 10 17 22 23 25 28 24 17 12 8 9 16 13 11 11 14 10 8 12 8
4 3 4 10 10 11 12 12 17 21 14 9 13 17 16 8 10 24 25 21 21 6 3 4 4 11 18 20 19 15 13 10 5 6 9 11 13 13 11 15 15 12 10 10 6
10 7 3 5 8 9 7 17 22 16 5 15 20 12 8 14 15 19 22 12 1 7 7 2 3 6 8 13 22 2 3 16 14 11 7 8 4 6 16 21 17 13 9 14 7
Wind_Direction
356 353 350 348 345 345 350 352 352 349 342 339 337 334 330 328 324 335 254 189 239 314 317 321 288 265 242 217 250 285 257 256 265 274 288 295 304 316 338 340 331 292 119 133 134
356 353 348 345 345 348 354 353 349 346 340 335 333 330 329 336 336 291 221 140 343 328 342 330 324 333 338 286 232 195 269 266 255 277 284 287 308 326 331 334 324 338 53 132 141
356 353 349 346 346 347 350 350 348 345 344 335 332 330 331 340 285 103 137 9 346 354 322 290 276 269 270 268 266 233 238 249 264 275 284 293 301 316 320 304 315 318 322 142 148
354 350 348 345 343 342 342 342 344 343 343 337 335 333 334 354 32 148 69 25 359 339 318 291 292 293 287 279 270 270 245 241 244 262 289 297 302 298 297 286 306 306 317 332 322
353 349 343 341 333 330 331 335 338 341 339 337 340 339 1 259 239 140 54 35 350 300 280 307 315 319 335 338 328 325 309 320 313 311 299 294 297 294 291 297 297 299 310 323 326
357 349 342 335 324 319 321 327 331 337 333 329 334 342 322 277 154 141 87 309 284 299 313 321 317 309 313 304 304 300 306 302 299 300 298 304 300 321 291 298 304 301 297 309 310
358 353 343 334 321 314 315 317 324 332 327 328 322 350 270 251 92 275 229 246 247 246 264 302 325 349 333 317 293 318 312 303 303 283 268 256 269 252 264 282 281 290 299 296 298
358 354 347 340 328 317 316 312 313 323 324 327 327 264 260 321 222 281 268 269 293 254 268 242 272 284 291 282 294 291 285 280 267 258 259 214 252 248 250 268 274 273 283 289 290
358 354 351 348 342 323 316 318 310 305 305 320 330 220 273 238 229 258 246 284 291 281 244 274 209 251 297 282 294 270 261 259 266 252 242 223 243 249 234 235 258 260 259 264 277
359 354 354 355 340 327 324 324 320 309 322 251 265 284 273 248 278 240 284 275 262 269 293 272 245 220 251 232 250 258 274 285 290 303 309 262 290 287 251 218 239 257 263 260 261
360 353 351 347 336 328 326 332 338 34 227 239 259 228 272 316 322 296 282 273 280 280 277 258 260 228 244 245 255 276 287 283 284 286 296 295 262 257 266 249 265 251 253 265 251
0 351 343 337 329 321 313 263 18 280 302 283 274 263 257 264 272 266 276 243 298 270 266 269 250 245 254 253 241 242 250 265 272 280 279 285 277 269 260 242 242 225 278 272 273
359 352 336 331 321 313 259 275 350 356 303 293 229 230 239 235 258 271 204 216 254 298 298 272 281 292 295 300 297 286 267 253 266 272 264 310 285 276 264 260 251 226 225 253 258
356 350 335 334 328 326 352 346 354 5 284 250 188 154 250 264 271 27 358 285 247 277 276 273 286 290 297 292 293 282 289 301 306 308 271 214 275 260 257 276 265 260 232 239 249
352 349 328 321 299 313 321 347 353 336 22 34 41 128 347 326 302 339 3 352 330 317 296 277 277 277 283 286 284 281 287 285 287 262 285 257 259 270 222 253 252 255 246 248 253
349 348 316 325 304 291 336 326 290 355 285 52 17 354 334 322 342 2 19 13 321 311 295 283 296 287 274 299 299 310 326 318 314 273 258 226 228 264 238 245 255 257 240 235 244
344 340 287 290 269 320 341 327 7 264 355 358 351 346 312 359 353 9 359 350 11 336 351 309 276 273 53 20 333 49 18 282 246 220 254 197 224 241 276 243 245 249 254 244 230
343 334 281 266 293 323 332 5 278 351 346 356 344 320 356 347 356 353 344 330 349 10 311 341 329 2 341 317 300 284 162 271 295 245 294 275 251 245 230 254 253 271 256 245 251
343 353 300 329 357 3 36 331 359 354 358 348 334 335 331 329 334 348 341 308 355 51 348 303 258 321 304 294 279 224 194 163 252 235 254 224 273 282 265 255 260 259 346 269 238
337 319 279 345 336 329 40 259 353 351 351 349 323 322 328 325 334 349 329 298 325 119 117 254 289 278 288 307 280 239 158 271 204 241 243 230 275 262 11 0 323 303 272 318 275
340 310 12 353 324 10 33 353 337 318 349 300 314 316 314 320 318 311 291 301 273 322 288 281 219 282 303 232 233 287 347 183 240 230 271 299 249 191 128 330 311 276 272 281 306
334 331 23 3 32 348 359 343 315 315 306 315 330 306 301 308 306 314 290 279 257 229 248 248 289 282 282 274 270 251 229 208 236 235 232 260 257 293 297 213 228 278 280 283 279
320 268 8 6 25 332 321 330 308 311 341 341 318 311 308 301 305 299 292 309 189 122 186 180 233 296 299 306 32 38 321 254 267 260 242 246 256 349 318 288 275 263 286 278 301
294 314 337 336 1 338 328 312 312 349 335 336 320 306 313 303 290 293 323 317 331 174 209 163 231 223 260 278 297 289 279 271 264 250 268 238 272 276 278 276 283 305 350 306 323
259 5 342 313 325 311 316 305 330 329 335 339 320 323 305 307 314 326 319 315 318 33 143 168 252 247 253 261 269 270 272 286 273 288 250 299 278 299 307 307 311 324 322 319 337
359 346 340 290 295 325 317 339 326 331 330 318 317 306 299 316 336 322 311 309 302 115 137 239 275 297 290 274 268 276 35 352 307 278 278 269 264 256 304 310 307 303 305 305 321
359 340 289 293 318 327 315 324 313 328 312 315 309 315 341 336 316 300 293 295 192 154 187 232 283 304 279 323 307 153 42 350 292 270 269 270 311 335 301 292 273 283 280 280 259